When you browse on this site, cookies collect data to enhance your experience and personalize the content and advertising you see.
Visit our Privacy Policy to learn more. By continuing to use the site, you agree to this use of cookies and data.
  • In Portugal
  • List of Countries
  • For 7 days
  • Water Temperature
  • Satellite Maps
  • Weather Map
  • Weather Widgets
  • user-avatar
    Login

    Hourly Weather Bilczew

    Today, 22 April, Monday

    Time Temperature Precipitation Wind Pressure Humidity
    00:00 +5°C° 0 mm 3 mps 757 mmHg 85%
    01:00 +4°C° 0 mm 3 mps 757 mmHg 91%
    02:00 +4°C° 0 mm 3 mps 757 mmHg 91%
    03:00 +4°C° 0 mm 3 mps 757 mmHg 91%
    04:00 +3°C° 0 mm 3 mps 757 mmHg 91%
    05:00 +4°C° 0 mm 4 mps 757 mmHg 87%
    06:00 +5°C° 0 mm 5 mps 757 mmHg 84%
    07:00 +6°C° 0 mm 5 mps 757 mmHg 80%
    08:00 +7°C° 0 mm 6 mps 757 mmHg 77%
    09:00 +8°C° 0 mm 6 mps 757 mmHg 75%
    10:00 +9°C° 0 mm 6 mps 757 mmHg 72%
    11:00 +10°C° 0 mm 6 mps 757 mmHg 70%
    12:00 +11°C° 0 mm 6 mps 757 mmHg 69%
    13:00 +13°C° 0 mm 6 mps 757 mmHg 67%
    14:00 +15°C° 0 mm 7 mps 756 mmHg 61%
    15:00 +16°C° 0 mm 7 mps 756 mmHg 55%
    16:00 +17°C° 0 mm 8 mps 756 mmHg 50%
    17:00 +16°C° 0 mm 7 mps 756 mmHg 54%
    18:00 +14°C° 0 mm 7 mps 756 mmHg 58%
    19:00 +13°C° 0 mm 6 mps 756 mmHg 62%
    20:00 +11°C° 0 mm 6 mps 757 mmHg 60%
    21:00 +11°C° 0 mm 6 mps 757 mmHg 59%
    22:00 +10°C° 0 mm 7 mps 757 mmHg 58%
    23:00 +9°C° 0 mm 7 mps 757 mmHg 57%

    Tomorrow, 23 April, Tuesday

    Time Temperature Precipitation Wind Pressure Humidity
    00:00 +9°C° 0 mm 7 mps 757 mmHg 56%
    01:00 +8°C° 0 mm 7 mps 757 mmHg 55%
    02:00 +8°C° 0 mm 7 mps 757 mmHg 55%
    03:00 +7°C° 0 mm 8 mps 756 mmHg 55%
    04:00 +7°C° 0 mm 8 mps 756 mmHg 55%
    05:00 +7°C° 0 mm 9 mps 756 mmHg 55%
    06:00 +8°C° 0 mm 9 mps 756 mmHg 55%
    07:00 +8°C° 0 mm 10 mps 756 mmHg 55%
    08:00 +11°C° 0 mm 10 mps 756 mmHg 52%
    09:00 +12°C° 0 mm 11 mps 755 mmHg 49%
    10:00 +14°C° 0 mm 11 mps 755 mmHg 46%
    11:00 +14°C° 0 mm 11 mps 755 mmHg 45%
    12:00 +16°C° 0 mm 11 mps 754 mmHg 43%
    13:00 +17°C° 0 mm 11 mps 754 mmHg 42%
    14:00 +17°C° 0 mm 11 mps 754 mmHg 43%
    15:00 +17°C° 0 mm 10 mps 753 mmHg 44%
    16:00 +17°C° 0 mm 10 mps 753 mmHg 45%
    17:00 +16°C° 0 mm 9 mps 753 mmHg 48%
    18:00 +15°C° 0 mm 9 mps 753 mmHg 51%
    19:00 +13°C° 0 mm 8 mps 753 mmHg 54%
    20:00 +13°C° 0 mm 8 mps 753 mmHg 53%
    21:00 +12°C° 0 mm 8 mps 753 mmHg 53%
    22:00 +12°C° 0 mm 8 mps 753 mmHg 52%
    23:00 +12°C° 0 mm 8 mps 753 mmHg 54%

    Day after tomorrow, 24 April, Wednesday

    Time Temperature Precipitation Wind Pressure Humidity
    00:00 +11°C° 0 mm 8 mps 753 mmHg 56%
    01:00 +11°C° 0 mm 8 mps 753 mmHg 58%
    02:00 +11°C° 0.5 mm 8 mps 753 mmHg 63%
    03:00 +10°C° 0.5 mm 7 mps 753 mmHg 69%
    04:00 +9°C° 0.5 mm 6 mps 752 mmHg 74%
    05:00 +10°C° 0.5 mm 7 mps 752 mmHg 73%
    06:00 +10°C° 0.5 mm 7 mps 753 mmHg 73%
    07:00 +10°C° 0.5 mm 7 mps 753 mmHg 73%
    08:00 +11°C° 0.6 mm 7 mps 753 mmHg 72%
    09:00 +12°C° 0.6 mm 7 mps 753 mmHg 72%
    10:00 +12°C° 0.6 mm 7 mps 753 mmHg 72%
    11:00 +15°C° 0 mm 7 mps 753 mmHg 67%
    12:00 +17°C° 0 mm 7 mps 753 mmHg 62%
    13:00 +20°C° 0 mm 7 mps 753 mmHg 58%
    14:00 +19°C° 0 mm 5 mps 752 mmHg 61%
    15:00 +19°C° 0 mm 4 mps 752 mmHg 63%
    16:00 +19°C° 0 mm 3 mps 752 mmHg 66%
    17:00 +18°C° 0.1 mm 3 mps 752 mmHg 70%
    18:00 +17°C° 0.1 mm 3 mps 752 mmHg 74%
    19:00 +16°C° 0.1 mm 3 mps 752 mmHg 78%
    20:00 +16°C° 0 mm 3 mps 752 mmHg 80%
    21:00 +14°C° 0 mm 4 mps 753 mmHg 82%
    22:00 +13°C° 0 mm 4 mps 753 mmHg 83%
    23:00 +13°C° 0 mm 4 mps 753 mmHg 83%

    25 April, Thursday

    Time Temperature Precipitation Wind Pressure Humidity
    00:00 +13°C° 0 mm 4 mps 753 mmHg 83%
    01:00 +12°C° 0 mm 4 mps 753 mmHg 83%
    02:00 +12°C° 0 mm 4 mps 753 mmHg 84%
    03:00 +12°C° 0 mm 4 mps 753 mmHg 84%
    04:00 +11°C° 0 mm 4 mps 753 mmHg 84%
    05:00 +13°C° 0 mm 5 mps 753 mmHg 82%
    06:00 +14°C° 0 mm 5 mps 753 mmHg 79%
    07:00 +15°C° 0 mm 5 mps 753 mmHg 77%
    08:00 +17°C° 0 mm 5 mps 753 mmHg 71%
    09:00 +20°C° 0 mm 5 mps 753 mmHg 66%
    10:00 +21°C° 0 mm 5 mps 753 mmHg 60%
    11:00 +22°C° 0 mm 5 mps 753 mmHg 58%
    12:00 +22°C° 0 mm 5 mps 753 mmHg 57%
    13:00 +23°C° 0 mm 5 mps 753 mmHg 55%
    14:00 +23°C° 0 mm 4 mps 753 mmHg 56%
    15:00 +23°C° 0 mm 4 mps 753 mmHg 56%
    16:00 +24°C° 0 mm 3 mps 752 mmHg 56%
    17:00 +22°C° 0 mm 3 mps 752 mmHg 61%
    18:00 +21°C° 0 mm 2 mps 753 mmHg 66%
    19:00 +19°C° 0 mm 2 mps 753 mmHg 70%
    20:00 +19°C° 0 mm 2 mps 753 mmHg 74%
    21:00 +18°C° 0 mm 2 mps 753 mmHg 77%
    22:00 +17°C° 0 mm 2 mps 753 mmHg 81%
    23:00 +16°C° 0 mm 2 mps 753 mmHg 82%

    26 April, Friday

    Time Temperature Precipitation Wind Pressure Humidity
    00:00 +16°C° 0 mm 2 mps 752 mmHg 83%
    01:00 +15°C° 0 mm 2 mps 752 mmHg 84%
    02:00 +14°C° 0.2 mm 3 mps 752 mmHg 86%
    03:00 +14°C° 0.2 mm 3 mps 751 mmHg 87%
    04:00 +13°C° 0.2 mm 3 mps 751 mmHg 88%
    05:00 +16°C° 0 mm 3 mps 751 mmHg 84%
    06:00 +17°C° 0 mm 4 mps 751 mmHg 80%
    07:00 +18°C° 0 mm 4 mps 750 mmHg 76%
    08:00 +20°C° 0 mm 4 mps 750 mmHg 70%
    09:00 +21°C° 0 mm 4 mps 750 mmHg 64%
    10:00 +23°C° 0 mm 5 mps 749 mmHg 58%
    11:00 +25°C° 0 mm 5 mps 749 mmHg 56%
    12:00 +26°C° 0 mm 5 mps 749 mmHg 53%
    13:00 +26°C° 0 mm 4 mps 748 mmHg 51%
    14:00 +27°C° 0 mm 4 mps 748 mmHg 50%
    15:00 +27°C° 0 mm 4 mps 748 mmHg 50%
    16:00 +27°C° 0 mm 4 mps 747 mmHg 50%
    17:00 +25°C° 0.5 mm 4 mps 747 mmHg 57%
    18:00 +22°C° 0.5 mm 4 mps 747 mmHg 64%
    19:00 +20°C° 0.5 mm 4 mps 747 mmHg 72%
    20:00 +19°C° 0.6 mm 4 mps 748 mmHg 78%
    21:00 +17°C° 0.6 mm 5 mps 749 mmHg 83%
    22:00 +16°C° 0.6 mm 6 mps 749 mmHg 89%
    23:00 +15°C° 0.2 mm 6 mps 750 mmHg 89%

    27 April, Saturday

    Time Temperature Precipitation Wind Pressure Humidity
    00:00 +14°C° 0.2 mm 7 mps 750 mmHg 89%
    01:00 +12°C° 0.2 mm 7 mps 751 mmHg 89%
    02:00 +11°C° 0 mm 7 mps 751 mmHg 89%
    03:00 +11°C° 0 mm 7 mps 752 mmHg 89%
    04:00 +10°C° 0 mm 7 mps 752 mmHg 89%
    05:00 +10°C° 0 mm 7 mps 753 mmHg 88%
    06:00 +10°C° 0 mm 6 mps 753 mmHg 87%
    07:00 +10°C° 0 mm 6 mps 754 mmHg 86%
    08:00 +10°C° 0 mm 6 mps 754 mmHg 85%
    09:00 +11°C° 0 mm 6 mps 755 mmHg 83%
    10:00 +11°C° 0 mm 6 mps 755 mmHg 82%
    11:00 +11°C° 0 mm 6 mps 756 mmHg 79%
    12:00 +12°C° 0 mm 5 mps 756 mmHg 76%
    13:00 +13°C° 0 mm 5 mps 756 mmHg 74%
    14:00 +13°C° 0 mm 4 mps 756 mmHg 71%
    15:00 +14°C° 0 mm 4 mps 756 mmHg 69%
    16:00 +16°C° 0 mm 3 mps 756 mmHg 66%
    17:00 +14°C° 0 mm 3 mps 756 mmHg 69%
    18:00 +13°C° 0 mm 3 mps 756 mmHg 72%
    19:00 +12°C° 0 mm 3 mps 756 mmHg 75%
    20:00 +12°C° 0 mm 3 mps 756 mmHg 77%
    21:00 +11°C° 0 mm 3 mps 757 mmHg 79%
    22:00 +10°C° 0 mm 3 mps 757 mmHg 81%
    23:00 +10°C° 0 mm 3 mps 757 mmHg 83%
    Show more